time_stamp(utc),avg(mph),gust(mph),direction(deg),12m_air_temp(f),sonic_u(cm/s),sonic_v(cm/s),sonic_w(cm/s),pressure,2m_air_temp(f),pyranometer(W/m^2)
"2020-09-05 00:03:00+00",7.5,8.5,,78.9,-276,-40,-56,1013.28,79.1,0
"2020-09-05 00:08:00+00",6.8,7.8,,78.8,-241,-74,-62,1013.38,79,0
"2020-09-05 00:13:00+00",6.1,7.1,,78.7,-234,-26,-22,1013.49,78.8,0
"2020-09-05 00:18:00+00",6.5,7.5,,78.6,-256,-9,-48,1013.67,78.8,0
"2020-09-05 00:23:00+00",5.3,6.3,,78.5,-200,3,-35,1013.83,78.7,0
"2020-09-05 00:28:00+00",7.2,9.2,,78.5,-291,26,-39,1013.92,78.6,0
"2020-09-05 00:33:00+00",7.5,8.5,,78.7,-296,47,-41,1014.09,78.5,0
"2020-09-05 00:38:00+00",6.2,7.2,,78.5,-238,-6,-43,1014.31,78.5,0
"2020-09-05 00:43:00+00",5.8,5.8,,78.4,-210,-13,-53,1014.25,78.3,0
"2020-09-05 00:48:00+00",5.0,6.0,,78.4,-182,6,-39,1014.28,78.3,0
"2020-09-05 00:53:00+00",5.5,6.5,,78.4,-238,28,-18,1014.29,78.2,0
"2020-09-05 00:58:00+00",5.0,6.0,,78.4,-224,-28,-21,1014.34,78.1,0
"2020-09-05 01:03:00+00",4.9,5.9,,78.3,-224,7,-27,1014.6,78.1,0
"2020-09-05 01:08:00+00",4.8,5.8,,78.3,-200,24,-19,1014.65,78,0
"2020-09-05 01:13:00+00",3.4,4.4,,78.7,-142,31,-23,1014.7,77.9,0
"2020-09-05 01:18:00+00",4.1,5.1,,78.6,-165,34,-20,1014.79,77.9,0
"2020-09-05 01:23:00+00",4.6,5.6,,78.7,-173,58,-37,1014.84,77.8,0
"2020-09-05 01:28:00+00",3.2,4.2,,78.3,-134,4,-1,1014.83,77.9,0
"2020-09-05 01:33:00+00",3.9,4.9,,78.1,-153,0,-15,1014.88,77.9,0
"2020-09-05 01:38:00+00",4.9,5.9,,78,-207,10,-27,1014.92,78,0
"2020-09-05 01:43:00+00",4.4,5.4,,78,-187,-53,-19,1014.9,77.9,0
"2020-09-05 01:48:00+00",3.1,4.1,,78.3,-126,29,-11,1014.91,77.7,0
"2020-09-05 01:53:00+00",2.7,3.7,,78.6,-110,2,1,1014.95,77.4,0
"2020-09-05 01:58:00+00",1.7,2.7,,78.4,-1,44,-17,1014.89,77.1,0
"2020-09-05 02:03:00+00",1.8,2.8,,78.3,-72,16,-27,1014.98,77,0
"2020-09-05 02:08:00+00",3.8,5.8,,78.5,-87,123,-36,1015.11,76.9,0
"2020-09-05 02:13:00+00",3.2,4.2,,79.1,-103,90,-2,1015.19,76.7,0
"2020-09-05 02:18:00+00",2.8,3.8,,78.8,-126,-4,-4,1015.23,76.5,0
"2020-09-05 02:23:00+00",4.2,5.2,,78.9,-132,83,-34,1015.22,76.4,0
"2020-09-05 02:28:00+00",5.1,6.1,,79.2,-143,132,-37,1015.19,76.4,0
"2020-09-05 02:33:00+00",5.4,6.4,,79.3,-159,134,-43,1015.23,76.4,0
"2020-09-05 02:38:00+00",5.8,6.8,,79.5,-98,208,-38,1015.25,76.5,0
"2020-09-05 02:43:00+00",3.7,4.7,,79.5,-58,121,-30,1015.29,76.5,0
"2020-09-05 02:48:00+00",3.6,4.6,,79.3,-78,102,-23,1015.46,76.5,0
"2020-09-05 02:53:00+00",3.5,4.5,,79.2,-87,89,-22,1015.48,76.4,0
"2020-09-05 02:58:00+00",4.7,4.7,,79.1,-122,135,-31,1015.58,76.3,0
"2020-09-05 03:03:00+00",3.2,4.2,,79.1,-98,82,-13,1015.56,76.3,0
"2020-09-05 03:08:00+00",4.9,5.9,,79.1,-173,110,-25,1015.63,76.3,0
"2020-09-05 03:13:00+00",5.8,5.8,,78.9,-234,114,-28,1015.63,76.5,0
"2020-09-05 03:18:00+00",4.6,5.6,,79,-176,85,-24,1015.69,76.6,0
"2020-09-05 03:23:00+00",5.3,7.3,,78.9,-198,107,-29,1015.7,76.6,0
"2020-09-05 03:28:00+00",4.6,5.6,,78.4,-211,58,-10,1015.77,76.8,0
"2020-09-05 03:33:00+00",3.6,4.6,,78.1,-123,88,-15,1015.86,76.7,0
"2020-09-05 03:38:00+00",4.4,4.4,,77.9,-118,121,-30,1015.99,76.5,0
"2020-09-05 03:43:00+00",5.5,6.5,,78.1,-154,179,-28,1015.91,76.2,0
"2020-09-05 03:48:00+00",5.1,6.1,,78.3,-172,148,-36,1016.06,76.1,0
"2020-09-05 03:53:00+00",4.9,4.9,,78.3,-155,151,-31,1016.13,76,0
"2020-09-05 03:58:00+00",5.6,6.6,,78.2,-176,176,-37,1016.09,75.8,0
"2020-09-05 04:03:00+00",5.0,6.0,,78,-138,178,-44,1016.09,75.7,0
"2020-09-05 04:08:00+00",5.2,5.2,,77.8,-114,187,-21,1016.11,75.6,0
"2020-09-05 04:13:00+00",4.7,5.7,,77.7,-145,126,-18,1016.23,75.5,0
"2020-09-05 04:18:00+00",4.9,5.9,,77.2,-164,116,-14,1016.28,75.6,0
"2020-09-05 04:23:00+00",5.7,6.7,,77.2,-210,125,-21,1016.28,75.6,0
"2020-09-05 04:28:00+00",5.5,6.5,,77.3,-192,123,-24,1016.39,75.6,0
"2020-09-05 04:33:00+00",5.5,6.5,,77.4,-190,122,-25,1016.38,75.7,0
"2020-09-05 04:38:00+00",5.6,6.6,,77.2,-172,153,-30,1016.37,75.8,0
"2020-09-05 04:43:00+00",8.1,9.1,,77,-226,247,-41,1016.39,75.9,0
"2020-09-05 04:48:00+00",6.5,7.5,,76.7,-167,189,-34,1016.33,75.8,0
"2020-09-05 04:53:00+00",7.4,8.4,,76.4,-218,233,-9,1016.46,75.6,0
"2020-09-05 04:58:00+00",6.1,7.1,,76.3,-149,202,-11,1016.58,75.4,0
"2020-09-05 05:03:00+00",4.8,5.8,,75.8,-94,161,-18,1016.65,75.1,0
"2020-09-05 05:08:00+00",5.4,5.4,,75.4,-121,189,-13,1016.57,74.8,0
"2020-09-05 05:13:00+00",5.9,6.9,,75.2,-98,227,-19,1016.69,74.5,0
"2020-09-05 05:18:00+00",5.3,5.3,,75.1,-101,190,-14,1016.73,74.1,0
"2020-09-05 05:23:00+00",4.7,5.7,,74.8,-96,168,-17,1016.71,73.8,0
"2020-09-05 05:28:00+00",5.7,6.7,,74.9,-187,176,-48,1016.76,73.6,0
"2020-09-05 05:33:00+00",5.6,6.6,,74.9,-191,170,-54,1016.75,73.6,0
"2020-09-05 05:38:00+00",5.5,6.5,,74.9,-190,156,-59,1016.89,73.5,0
"2020-09-05 05:43:00+00",5.3,5.3,,74.7,-170,182,-25,1016.83,73.5,0
"2020-09-05 05:48:00+00",6.3,7.3,,74.9,-207,197,-41,1016.83,73.4,0
"2020-09-05 05:53:00+00",5.5,6.5,,74.9,-168,129,-13,1016.92,73.4,0
"2020-09-05 05:58:00+00",6.8,7.8,,75.1,-217,153,-13,1017,73.3,0
"2020-09-05 06:03:00+00",6.6,7.6,,74.9,-257,149,-31,1016.92,73.3,0
"2020-09-05 06:08:00+00",6.8,7.8,,74.8,-224,207,-22,1016.93,73.3,0
"2020-09-05 06:13:00+00",5.7,6.7,,74.6,-210,181,-15,1016.97,73.2,0
"2020-09-05 06:18:00+00",6.4,7.4,,74.5,-259,164,-25,1017.09,73.1,0
"2020-09-05 06:23:00+00",7.0,8.0,,74.3,-228,170,-58,1017.1,73,0
"2020-09-05 06:28:00+00",8.0,9.0,,74.3,-235,252,-34,1017.11,72.8,0
"2020-09-05 06:33:00+00",8.2,9.2,,74.2,-213,276,-39,1017.08,72.7,0
"2020-09-05 06:38:00+00",9.5,11.5,,74,-262,326,-39,1017.03,72.5,0
"2020-09-05 06:43:00+00",10.3,11.3,,73.7,-265,357,-33,1017.16,72.4,0
"2020-09-05 06:48:00+00",11.9,12.9,,73,-348,398,-25,1017.27,72,0
"2020-09-05 06:53:00+00",11.4,12.4,,72.6,-334,356,-38,1017.24,71.9,0
"2020-09-05 06:58:00+00",9.2,11.2,,72.2,-265,307,-29,1017.28,71.7,0
"2020-09-05 07:03:00+00",10.4,11.4,,71.6,-275,351,-36,1017.33,71.3,0
"2020-09-05 07:08:00+00",9.4,10.4,,71.2,-247,329,-36,1017.4,70.9,0
"2020-09-05 07:13:00+00",10.1,12.1,,70.8,-250,356,-44,1017.37,70.6,0
"2020-09-05 07:18:00+00",9.6,12.6,,70.5,-214,336,-32,1017.5,70.2,0
"2020-09-05 07:23:00+00",10.1,12.1,,70,-206,368,-53,1017.53,69.9,0
"2020-09-05 07:28:00+00",8.6,10.6,,69.7,-124,357,-34,1017.57,69.5,0
"2020-09-05 07:33:00+00",10.9,12.9,,69.3,-132,451,-55,1017.7,69.1,0
"2020-09-05 07:38:00+00",12.4,14.4,,69.1,-82,544,-64,1017.77,68.7,0
"2020-09-05 07:43:00+00",12.8,14.8,,69.1,11,565,-77,1017.69,68.4,0
"2020-09-05 07:48:00+00",12.9,15.9,,69.1,-6,575,-66,1017.81,68.2,0
"2020-09-05 07:53:00+00",12.2,14.2,,68.9,-8,539,-65,1017.97,68,0
"2020-09-05 07:58:00+00",14.9,17.9,,68.9,30,653,-84,1018.03,67.9,0
"2020-09-05 08:03:00+00",18.8,21.8,,69,11,834,-55,1018.17,67.9,0
"2020-09-05 08:08:00+00",16.8,19.8,,68.8,2,770,-44,1018.11,67.9,0
"2020-09-05 08:13:00+00",15.2,18.2,,68.7,26,706,-33,1018.15,67.9,0
"2020-09-05 08:18:00+00",16.0,19.0,,68.5,31,741,-53,1018.28,67.7,0
"2020-09-05 08:23:00+00",16.6,20.6,,68.3,8,753,-68,1018.19,67.5,0
"2020-09-05 08:28:00+00",16.0,19.0,,68.1,53,744,-56,1018.39,67.3,0
"2020-09-05 08:33:00+00",16.4,19.4,,68,70,745,-53,1018.52,67.2,0
"2020-09-05 08:38:00+00",17.0,20.0,,67.7,19,776,-60,1018.61,67.1,0
"2020-09-05 08:43:00+00",15.2,17.2,,67.5,-30,699,-42,1018.65,66.8,0
"2020-09-05 08:48:00+00",17.4,20.4,,67.4,-43,799,-58,1018.81,66.7,0
"2020-09-05 08:53:00+00",15.8,20.8,,67.2,-56,737,-48,1018.79,66.6,0
"2020-09-05 08:58:00+00",15.4,19.4,,67,-31,715,-29,1018.91,66.4,0
"2020-09-05 09:03:00+00",15.7,17.7,,67,45,718,-52,1018.95,66.2,0
"2020-09-05 09:08:00+00",14.7,16.7,,67,43,671,-47,1018.97,66.2,0
"2020-09-05 09:13:00+00",15.7,18.7,,67,39,738,-48,1019.02,66.1,0
"2020-09-05 09:18:00+00",15.4,17.4,,66.9,32,696,-50,1019.17,66.1,0
"2020-09-05 09:23:00+00",16.0,19.0,,66.9,24,729,-65,1019.19,66.1,0
"2020-09-05 09:28:00+00",15.3,18.3,,66.8,-24,726,-26,1019.26,66,0
"2020-09-05 09:33:00+00",13.5,15.5,,66.7,-5,632,-48,1019.36,65.9,0
"2020-09-05 09:38:00+00",14.8,16.8,,66.7,8,677,-54,1019.42,65.8,0
"2020-09-05 09:43:00+00",13.8,16.8,,66.5,-8,633,-47,1019.45,65.7,0
"2020-09-05 09:48:00+00",13.9,15.9,,66.4,8,622,-63,1019.52,65.6,0
"2020-09-05 09:53:00+00",12.9,14.9,,66.4,-19,591,-52,1019.62,65.5,0
"2020-09-05 09:58:00+00",12.4,14.4,,66.4,6,550,-47,1019.81,65.4,0
"2020-09-05 10:03:00+00",12.3,14.3,,66.3,-1,553,-45,1019.84,65.3,0
"2020-09-05 10:08:00+00",12.2,13.2,,66.3,-45,549,-20,1019.95,65.3,0
"2020-09-05 10:13:00+00",14.4,16.4,,66.2,-49,645,-37,1020.07,65.2,0
"2020-09-05 10:18:00+00",13.9,15.9,,65.9,-91,609,5,1020.07,65,0
"2020-09-05 10:23:00+00",14.3,16.3,,65.9,-77,644,12,1020.06,65,0
"2020-09-05 10:28:00+00",13.0,17.0,,65.7,-91,569,6,1020.25,64.8,0
"2020-09-05 10:33:00+00",13.9,15.9,,65.7,-101,620,13,1020.45,64.8,0
"2020-09-05 10:38:00+00",12.0,13.0,,65.4,-110,515,13,1020.58,64.7,0
"2020-09-05 10:43:00+00",14.0,16.0,,65.3,-66,610,6,1020.65,64.5,0
"2020-09-05 10:48:00+00",14.4,18.4,,65.2,-41,654,-7,1020.65,64.4,0
"2020-09-05 10:53:00+00",12.7,14.7,,65.3,-57,555,11,1020.75,64.4,0
"2020-09-05 10:58:00+00",13.6,14.6,,65.3,-45,602,7,1020.85,64.6,0
"2020-09-05 11:03:00+00",11.4,14.4,,65.1,-32,505,6,1020.87,64.5,0
"2020-09-05 11:08:00+00",15.0,19.0,,65.3,-13,664,-11,1020.91,64.6,0
"2020-09-05 11:13:00+00",11.9,17.9,,65.3,1,527,13,1020.89,64.8,0
"2020-09-05 11:18:00+00",11.5,14.5,,65.5,-15,502,8,1020.97,65.2,0
"2020-09-05 11:23:00+00",14.0,17.0,,65.8,-26,615,20,1021.07,65.6,0
"2020-09-05 11:28:00+00",13.3,15.3,,65.9,-51,593,14,1021.04,66.1,0
"2020-09-05 11:33:00+00",14.1,17.1,,65.9,-47,633,10,1021.16,66.5,0
"2020-09-05 11:38:00+00",12.4,15.4,,66,6,552,8,1021.15,66.9,0
"2020-09-05 11:43:00+00",13.2,17.2,,66.4,29,581,16,1021.09,67.2,0
"2020-09-05 11:48:00+00",14.0,18.0,,66.7,-23,622,14,1021.12,67.5,0
"2020-09-05 11:53:00+00",13.7,16.7,,67,44,605,10,1021.22,67.9,0
"2020-09-05 11:58:00+00",12.1,14.1,,67.3,57,537,1,1021.19,68.2,0
"2020-09-05 12:03:00+00",15.0,18.0,,67.6,73,650,-7,1021.26,68.7,0
"2020-09-05 12:08:00+00",16.1,18.1,,67.7,61,723,-10,1021.18,69,0
"2020-09-05 12:13:00+00",13.6,15.6,,67.9,70,588,-12,1021.27,69.1,0
"2020-09-05 12:18:00+00",16.2,19.2,,67.9,61,726,-3,1021.29,69.3,0
"2020-09-05 12:23:00+00",13.6,15.6,,68.1,121,576,-10,1021.41,69.7,0
"2020-09-05 12:28:00+00",12.2,15.2,,68.4,78,522,6,1021.41,70,0
"2020-09-05 12:33:00+00",11.2,13.2,,68.7,48,478,14,1021.48,70.5,0
"2020-09-05 12:38:00+00",10.0,13.0,,69.5,140,400,21,1021.59,71.1,0
"2020-09-05 12:43:00+00",11.1,14.1,,70.1,145,428,18,1021.6,71.7,0
"2020-09-05 12:48:00+00",13.4,15.4,,70.4,158,563,-4,1021.62,72.2,0
"2020-09-05 12:53:00+00",13.4,15.4,,70.4,295,498,9,1021.63,72.5,0
"2020-09-05 12:58:00+00",13.4,16.4,,70.9,185,562,-4,1021.6,72.9,0
"2020-09-05 13:03:00+00",13.8,15.8,,71,266,535,-11,1021.56,73.4,0
"2020-09-05 13:08:00+00",12.1,14.1,,71.2,117,501,7,1021.65,73.5,0
"2020-09-05 13:13:00+00",12.4,14.4,,71.6,152,512,0,1021.69,73.8,0
"2020-09-05 13:18:00+00",10.3,13.3,,71.7,98,423,3,1021.63,74.1,0
"2020-09-05 13:23:00+00",10.7,12.7,,71.8,199,411,22,1021.73,74.3,0
"2020-09-05 13:28:00+00",12.3,14.3,,71.9,185,479,-6,1021.78,74.6,0
"2020-09-05 13:33:00+00",12.0,16.0,,71.9,252,446,24,1021.87,74.6,0
"2020-09-05 13:38:00+00",15.6,17.6,,72,352,572,-16,1021.92,74.7,0
"2020-09-05 13:43:00+00",13.4,15.4,,72.2,381,426,15,1021.97,75.1,0
"2020-09-05 13:48:00+00",12.8,16.8,,72.4,301,459,19,1021.98,75.3,0
"2020-09-05 13:53:00+00",14.5,16.5,,72.4,287,546,21,1022.07,75.4,0
"2020-09-05 13:58:00+00",12.6,14.6,,72.7,52,542,-8,1022.06,75.8,0
"2020-09-05 14:03:00+00",11.9,13.9,,72.6,163,487,-9,1022.28,76,0
"2020-09-05 14:08:00+00",11.4,15.4,,72.5,153,467,-1,1022.23,76.1,0
"2020-09-05 14:13:00+00",11.3,13.3,,72.8,258,412,-4,1022.23,76.4,0
"2020-09-05 14:18:00+00",12.9,13.9,,72.7,241,514,-24,1022.39,76.4,0
"2020-09-05 14:23:00+00",12.1,15.1,,72.9,266,444,14,1022.41,76.5,0
"2020-09-05 14:28:00+00",12.0,16.0,,72.4,404,357,5,1022.4,76.3,0
"2020-09-05 14:33:00+00",12.3,14.3,,72.4,298,416,-14,1022.45,76,0
"2020-09-05 14:38:00+00",12.6,14.6,,72.7,323,447,-3,1022.47,76.4,0
"2020-09-05 14:43:00+00",13.3,15.3,,72.5,446,391,4,1022.52,76.6,0
"2020-09-05 14:48:00+00",11.3,12.3,,72.5,359,333,27,1022.55,76.4,0
"2020-09-05 14:53:00+00",7.0,9.0,,72.3,144,236,11,1022.72,76.3,0
"2020-09-05 14:58:00+00",11.3,13.3,,72.7,452,236,2,1022.77,77.2,0
"2020-09-05 15:03:00+00",12.4,14.4,,72.7,483,279,40,1022.7,77.3,0
"2020-09-05 15:08:00+00",12.5,15.5,,72.5,330,419,6,1022.65,77.2,0
"2020-09-05 15:13:00+00",12.5,14.5,,72.7,458,346,14,1022.69,77.1,0
"2020-09-05 15:18:00+00",13.5,15.5,,72.8,489,361,24,1022.73,77.3,0
"2020-09-05 15:23:00+00",9.6,12.6,,72.6,423,159,33,1022.74,77.2,0
"2020-09-05 15:28:00+00",11.4,13.4,,72.7,366,326,12,1022.8,77.6,0
"2020-09-05 15:33:00+00",10.8,12.8,,72.6,378,299,32,1022.79,76.9,0
"2020-09-05 15:38:00+00",10.4,14.4,,73,345,279,27,1022.83,77.5,0
"2020-09-05 15:43:00+00",9.3,11.3,,72.8,370,188,21,1022.75,77.7,0
"2020-09-05 15:48:00+00",10.5,13.5,,73,388,271,64,1022.67,78.1,0
"2020-09-05 15:53:00+00",10.2,11.2,,73,452,152,31,1022.59,78.3,0
"2020-09-05 15:58:00+00",8.4,9.4,,72.9,294,231,25,1022.67,78.3,0
"2020-09-05 16:03:00+00",10.6,12.6,,72.9,401,264,24,1022.63,78.4,0
"2020-09-05 16:08:00+00",9.3,12.3,,72.9,386,146,43,1022.61,78.5,0
"2020-09-05 16:13:00+00",9.3,10.3,,72.8,310,274,16,1022.53,78.7,0
"2020-09-05 16:18:00+00",7.5,8.5,,72.9,325,67,54,1022.53,78.9,0
"2020-09-05 16:23:00+00",11.1,14.1,,73,504,68,58,1022.46,78.9,0
"2020-09-05 16:28:00+00",11.0,13.0,,72.8,484,66,48,1022.44,78.7,0
"2020-09-05 16:33:00+00",13.1,16.1,,72.7,613,4,14,1022.4,77.8,0
"2020-09-05 16:38:00+00",10.0,13.0,,72.5,428,143,35,1022.49,77.3,0
"2020-09-05 16:43:00+00",12.7,13.7,,72.4,572,48,15,1022.44,77.1,0
"2020-09-05 16:48:00+00",12.0,14.0,,72.6,549,-31,25,1022.43,76.8,0
"2020-09-05 16:53:00+00",13.6,14.6,,72.5,614,46,17,1022.32,76.7,0
"2020-09-05 16:58:00+00",11.2,13.2,,72.7,506,-82,48,1022.37,76.5,0
"2020-09-05 17:03:00+00",14.1,16.1,,72.3,636,56,10,1022.36,76.9,0
"2020-09-05 17:08:00+00",13.0,14.0,,72.5,587,57,22,1022.36,76.8,0
"2020-09-05 17:13:00+00",12.8,15.8,,72.5,574,9,24,1022.33,76.7,0
"2020-09-05 17:18:00+00",11.9,13.9,,72.5,500,-213,19,1022.34,76.4,0
"2020-09-05 17:23:00+00",11.4,13.4,,72.5,504,-45,10,1022.31,75.8,0
"2020-09-05 17:28:00+00",12.1,14.1,,72.5,524,-129,-5,1022.39,75.7,0
"2020-09-05 17:33:00+00",13.2,17.2,,72.9,581,-167,28,1022.32,76,0
"2020-09-05 17:38:00+00",12.4,14.4,,72.7,538,-166,-2,1022.23,76.1,0
"2020-09-05 17:43:00+00",11.5,13.5,,72.7,500,-154,6,1022.28,76,0
"2020-09-05 17:48:00+00",10.8,11.8,,72.7,436,-221,22,1022.23,76.1,0
"2020-09-05 17:53:00+00",11.2,14.2,,72.8,491,-105,25,1022.08,76.3,0
"2020-09-05 17:58:00+00",13.0,15.0,,72.7,553,-173,-8,1022.1,76.1,0
"2020-09-05 18:03:00+00",10.9,13.9,,72.8,469,-161,-6,1021.99,76.2,0
"2020-09-05 18:08:00+00",13.4,15.4,,72.4,575,-135,-17,1021.92,76.1,0
"2020-09-05 18:13:00+00",12.9,14.9,,72.5,568,-168,-21,1021.88,76,0
"2020-09-05 18:18:00+00",11.7,13.7,,72.6,498,-169,18,1021.78,75.9,0
"2020-09-05 18:23:00+00",13.9,15.9,,72.7,605,-98,0,1021.67,76.1,0
"2020-09-05 18:28:00+00",12.6,13.6,,72.5,560,-62,39,1021.56,76.1,0
"2020-09-05 18:33:00+00",11.7,13.7,,72.8,487,-199,11,1021.56,76.2,0
"2020-09-05 18:38:00+00",12.0,14.0,,72.7,461,-267,20,1021.53,76.2,0
"2020-09-05 18:43:00+00",12.5,13.5,,72.7,531,-165,18,1021.53,76.1,0
"2020-09-05 18:48:00+00",11.9,12.9,,73,478,-215,26,1021.43,76.1,0
"2020-09-05 18:53:00+00",13.5,15.5,,73.1,444,-412,-3,1021.45,76.3,0
"2020-09-05 18:58:00+00",11.6,15.6,,72.7,433,-301,42,1021.52,76.1,0
"2020-09-05 19:03:00+00",12.5,13.5,,72.5,457,-318,9,1021.59,75.9,0
"2020-09-05 19:08:00+00",12.6,15.6,,72.8,537,-173,30,1021.6,76,0
"2020-09-05 19:13:00+00",13.6,15.6,,72.9,534,-323,3,1021.59,76.2,0
"2020-09-05 19:18:00+00",11.6,12.6,,72.9,370,-345,15,1021.61,76,0
"2020-09-05 19:23:00+00",12.9,13.9,,72.8,523,-249,-7,1021.6,76,0
"2020-09-05 19:28:00+00",11.0,13.0,,73,451,-216,55,1021.66,76.3,0
"2020-09-05 19:33:00+00",13.2,15.2,,73,505,-318,1,1021.6,76.1,0
"2020-09-05 19:38:00+00",12.3,14.3,,72.8,534,-151,-1,1021.67,75.9,0
"2020-09-05 19:43:00+00",12.5,16.5,,72.9,521,-221,22,1021.62,75.7,0
"2020-09-05 19:48:00+00",11.8,15.8,,72.8,474,-235,10,1021.65,75.6,0
"2020-09-05 19:53:00+00",13.2,15.2,,73.1,521,-290,19,1021.57,75.9,0
"2020-09-05 19:58:00+00",13.4,14.4,,73,504,-329,-25,1021.55,76,0
"2020-09-05 20:03:00+00",12.5,13.5,,72.8,489,-264,-7,1021.55,75.8,0
"2020-09-05 20:08:00+00",13.9,14.9,,72.6,377,-481,-24,1021.59,75.4,0
"2020-09-05 20:13:00+00",12.1,14.1,,72.7,402,-349,13,1021.57,75.3,0
"2020-09-05 20:18:00+00",11.6,12.6,,72.9,452,-242,-12,1021.52,75.7,0
"2020-09-05 20:23:00+00",12.2,14.2,,73,423,-330,-17,1021.52,75.6,0
"2020-09-05 20:28:00+00",12.4,14.4,,73,331,-410,-15,1021.56,75.4,0
"2020-09-05 20:33:00+00",10.3,12.3,,73.1,289,-332,5,1021.5,75.4,0
"2020-09-05 20:38:00+00",9.2,11.2,,73.1,331,-233,40,1021.47,75.4,0
"2020-09-05 20:43:00+00",12.3,13.3,,73,339,-424,-28,1021.56,75.5,0
"2020-09-05 20:48:00+00",11.7,14.7,,73.3,195,-449,-15,1021.66,75.3,0
"2020-09-05 20:53:00+00",12.0,13.0,,73,402,-353,-1,1021.57,75,0
"2020-09-05 20:58:00+00",12.3,14.3,,73.1,359,-413,-20,1021.6,75.1,0
"2020-09-05 21:03:00+00",11.1,13.1,,73.1,290,-396,-17,1021.6,74.8,0
"2020-09-05 21:08:00+00",9.6,11.6,,73.1,204,-365,-5,1021.6,74.8,0
"2020-09-05 21:13:00+00",10.7,11.7,,73.1,255,-390,-9,1021.64,74.8,0
"2020-09-05 21:18:00+00",11.3,12.3,,73.2,377,-325,-4,1021.6,74.9,0
"2020-09-05 21:23:00+00",8.6,10.6,,73.3,156,-321,-24,1021.64,75,0
"2020-09-05 21:28:00+00",8.0,12.0,,73.3,97,-298,25,1021.68,74.9,0
"2020-09-05 21:33:00+00",9.9,11.9,,73.4,243,-344,-4,1021.78,74.8,0
"2020-09-05 21:38:00+00",9.8,10.8,,73.2,113,-401,-19,1021.72,74.5,0
"2020-09-05 21:43:00+00",9.8,11.8,,73,232,-351,-6,1021.82,74.2,0
"2020-09-05 21:48:00+00",11.0,13.0,,73,190,-455,-25,1021.91,74,0
"2020-09-05 21:53:00+00",11.2,13.2,,73,155,-450,-14,1021.9,74,0
"2020-09-05 21:58:00+00",9.9,11.9,,73,194,-379,-7,1021.86,73.9,0
"2020-09-05 22:03:00+00",8.6,10.6,,73.1,119,-343,10,1021.91,74,0
"2020-09-05 22:08:00+00",9.6,12.6,,73,203,-366,-18,1021.88,73.9,0
"2020-09-05 22:13:00+00",7.8,12.8,,73.1,49,-324,21,1021.91,73.7,0
"2020-09-05 22:18:00+00",8.5,10.5,,73.1,-14,-351,-13,1021.92,73.6,0
"2020-09-05 22:23:00+00",9.2,11.2,,72.9,139,-361,10,1021.91,73.4,0
"2020-09-05 22:28:00+00",8.9,10.9,,73,42,-376,-15,1021.95,73.3,0
"2020-09-05 22:33:00+00",8.8,9.8,,72.9,115,-351,-10,1021.98,73.2,0
"2020-09-05 22:38:00+00",8.1,10.1,,72.9,37,-343,-8,1022.05,73.1,0
"2020-09-05 22:43:00+00",8.6,10.6,,72.8,24,-374,-23,1022.05,73,0
"2020-09-05 22:48:00+00",7.9,9.9,,72.8,3,-319,-9,1022.12,72.8,0
"2020-09-05 22:53:00+00",8.2,11.2,,72.8,20,-327,-8,1022.08,72.7,0
"2020-09-05 22:58:00+00",7.7,10.7,,72.7,-30,-334,-6,1022.18,72.6,0
"2020-09-05 23:03:00+00",6.5,7.5,,72.7,-46,-269,-8,1022.22,72.5,0
"2020-09-05 23:08:00+00",7.0,10.0,,72.6,-13,-306,-15,1022.2,72.4,0
"2020-09-05 23:13:00+00",7.6,9.6,,72.5,-31,-322,-12,1022.16,72.1,0
"2020-09-05 23:18:00+00",7.5,9.5,,72.4,1,-318,-10,1022.13,72,0
"2020-09-05 23:23:00+00",7.1,9.1,,72.2,-19,-292,2,1022.18,71.7,0
"2020-09-05 23:28:00+00",7.5,9.5,,72.1,-63,-320,-12,1022.19,71.6,0
"2020-09-05 23:33:00+00",5.9,7.9,,71.9,-37,-252,-4,1022.29,71.3,0
"2020-09-05 23:38:00+00",6.0,7.0,,71.8,-13,-245,-9,1022.3,71.2,0
"2020-09-05 23:43:00+00",6.6,7.6,,71.8,-26,-274,-15,1022.38,71.1,0
"2020-09-05 23:48:00+00",7.1,10.1,,71.9,-22,-300,-21,1022.27,71.1,0
"2020-09-05 23:53:00+00",6.8,7.8,,71.7,-71,-282,2,1022.3,71,0
"2020-09-05 23:58:00+00",6.8,7.8,,71.5,-57,-289,-7,1022.41,70.8,0
